Other Public Products
Issued by NWS Grand Forks, ND

Home | Current Version | Previous Version | Text Only | Print | Product List | Glossary Off
Versions: 1 2 3 4 5 6 7 8 9 10 11 12 13 14 15 16 17 18 19 20 21 22 23 24 25 26 27 28 29 30 31 32 33 34 35 36 37 38 39 40 41 42 43 44 45 46 47 48 49 50

000
FPUS83 KFGF 111531
OPUFGF
PRAIRIE TO PINES WEATHER ROUNDUP
NATIONAL WEATHER SERVICE EASTERN NORTH DAKOTA/GRAND FORKS ND
1000 AM CDT FRI JUL 11 2014

 **SATELLITE DATA USED TO AUGMENT SKY COVER AT AUTOMATED STATIONS**
 *****  WEATHER ACROSS EASTERN NORTH DAKOTA  *****

CITY           SKY/WX    TMP DP  RH WIND       PRES   REMARKS
GRAND FORKS    MOSUNNY   75  68  78 W6        29.85R
GRAND FORKS AF MOSUNNY   76  74  93 NW6       29.87R
GRAND CITY NWS   N/A     77 N/A N/A NW7         N/A
BUXTON           N/A     78  74  90 NW6         N/A
DEVILS LAKE    SUNNY     75  55  50 N14       29.92R
FARGO          SUNNY     78  70  76 CALM      29.84S
WAHPETON ARPT  PTSUNNY   77  68  73 NW6       29.87S
$$

 *****  WEATHER ACROSS CENTRAL AND WESTERN NORTH DAKOTA  *****

CITY           SKY/WX    TMP DP  RH WIND       PRES   REMARKS
JAMESTOWN      SUNNY     75  68  78 NW9       29.91R
BISMARCK       SUNNY     76  66  71 N15       29.97R
MINOT          PTSUNNY   73  58  59 NW14G23   29.98R
MINOT AFB      PTSUNNY   71  62  72 NW20G25   29.98R
GARRISON         N/A     69  61  75 NW5       30.01R
WILLISTON      CLOUDY    65  52  62 N12       30.05R
DICKINSON      MOSUNNY   72  61  68 NE12      30.02S
HETTINGER      MOSUNNY   72  63  73 N23G33    30.02R
$$

 *****  OTHER OBSERVATIONS NORTHEAST NORTH DAKOTA  *****

CITY           SKY/WX    TMP DP  RH WIND       PRES   REMARKS
WALHALLA         N/A     75  57  53 N7          N/A
LANGDON        FAIR      75  55  50 N10       29.92R
CAVALIER       FAIR      77  63  61 N9        29.88R HAZE
GRAFTON        FAIR      75  66  73 N12       29.87R
CANDO          FAIR      70  57  64 NW6       29.95R
FORT TOTTEN      N/A     74  64  70 N6        29.95
ROLLA          FAIR      72  55  56 NW17G25   29.96R
RUGBY          FAIR      72  57  60 NW8       29.96R
 ***** THE ABOVE OBSERVATIONS ARE NON NWS ARE NOT QUALITY
        CONTROLLED AND MAY MIS-REPORT RAIN FOR SNOW...
$$

 *****  OTHER OBSERVATIONS SOUTHEAST NORTH DAKOTA *****

CITY           SKY/WX    TMP DP  RH WIND       PRES   REMARKS
COOPERSTOWN    NOT AVBL
VALLEY CITY    FAIR      77  75  94 N9        29.91R
OAKES          NOT AVBL
GWINNER        SUNNY     81  72  74 N9        29.88F
SHEYENNE NWR     N/A     79  71  77 N6        29.95S
BUFFALO          N/A     77  67  71 NW9         N/A
WYNDMERE       NOT AVBL
 ***** THE ABOVE OBSERVATIONS ARE NON NWS ARE NOT QUALITY
       CONTROLLED AND MAY MIS-REPORT RAIN FOR SNOW...
$$

  *****  WEATHER ACROSS NORTHERN MINNESOTA  *****

CITY           SKY/WX    TMP DP  RH WIND       PRES   REMARKS
FLAG ISLAND    CLOUDY    73  66  78 W15       29.81R HAZE
WARROAD        PTSUNNY   75  70  83 W8        29.83S
ROSEAU         SUNNY     75  70  83 W13G20    29.84R
HALLOCK        MOSUNNY   75  66  73 N15       29.85R
THF RVR FALLS  PTSUNNY   75  70  83 W7        29.86R
HALSTAD          N/A     78  68  70 N7          N/A
FOSSTON        CLOUDY    75  66  73 SW8       29.87R
BAUDETTE       CLOUDY    74  68  81 S10       29.84R
WASKISH        CLOUDY    73  68  83 SW6       29.85S
CROOKSTON      SUNNY     75  70  83 W3        29.86S
$$
  *****  WEATHER ACROSS CENTRAL AND WEST MINNESOTA  *****

CITY           SKY/WX    TMP DP  RH WIND       PRES   REMARKS
BEMIDJI        CLOUDY    73  68  84 SW8       29.87S
PARK RAPIDS    CLOUDY    70  67  90 S7        29.89S
WADENA         PTSUNNY   72  68  88 S6        29.89S
DETROIT LAKES  CLOUDY    73  70  88 S6        29.89S
MOORHEAD       SUNNY     79  73  83 N1        29.86R
FERGUS FALLS   PTSUNNY   75  66  73 W6        29.87S
ELBOW LAKE     CLOUDY    73  70  88 S10       29.87F
MORRIS MN      SUNNY     79  70  73 SW6       29.87F
STAPLES        CLOUDY    68  66  94 S10       29.90S
WHEATON        PTSUNNY   75  68  78 CALM      29.89R
$$
  *****  WEATHER ELSEWHERE ACROSS MINNESOTA  *****

CITY           SKY/WX    TMP DP  RH WIND       PRES   REMARKS
DULUTH         CLOUDY    66  62  87 S12       29.93F
INTRNTL FALLS  CLOUDY    70  65  84 VRB7      29.85S
ELY            CLOUDY    64  61  88 S8G16     29.91S
CLOQUET        CLOUDY    66  63  88 S9        29.94R
BRAINERD       CLOUDY    73  65  75 S15       29.90F
HIBBING        CLOUDY    68  63  84 VRB6      29.91S
ALEXANDRIA     CLOUDY    72  67  84 SW10      29.91S
SAINT CLOUD    CLOUDY    68  66  93 S10       29.93F
MINNEAPOLIS    LGT RAIN  65  64  97 S16G25    29.99F
$$

  *****  WEATHER ACROSS SOUTH DAKOTA  *****

CITY           SKY/WX    TMP DP  RH WIND       PRES   REMARKS
SIOUX FALLS    CLOUDY    77  70  79 S10       29.92R
BROOKINGS      NOT AVBL
WATERTOWN      MOSUNNY   77  69  76 W10       29.90S
HURON          MOSUNNY   80  68  66 VRB3      29.87S
SISSETON         N/A     80  70  71 NW6       29.85S
ABERDEEN       SUNNY     76  70  82 E6        29.89R
MITCHELL       PTSUNNY   78  71  79 S13       29.89R
PIERRE         SUNNY     80  69  69 CALM      29.91R
MOBRIDGE       SUNNY     77  70  79 N13       29.91R
RAPID CITY     SUNNY     79  62  56 N8        30.00R
$$

  *****  SOME WEATHER IN NEARBY STATES *****

CITY           SKY/WX    TMP DP  RH WIND       PRES   REMARKS
GLASGOW MT     MOSUNNY   65  58  78 N7        30.11R
GREAT FALLS MT CLOUDY    61  48  63 N14       30.21R
CHEYENNE WY    MOSUNNY   72  55  55 SW3       30.20R
SCOTTSBLUFF NE MOSUNNY   76  61  59 SE5       30.06R
OMAHA NE       CLOUDY    72  65  78 SE15      30.00R
DES MOINES IA  LGT RAIN  69  64  84 SE8       30.07F
DAVENPORT IA   PTSUNNY   70  58  65 S15       30.15F
CHICAGO IL     MOSUNNY   75  52  44 S6        30.20F
EAU CLAIRE WI  CLOUDY    68  61  78 SW14      30.05F
LA CROSSE WI   CLOUDY    70  61  73 S9        30.11R
$$

  *****  SOME NATIONAL WEATHER *****

CITY           SKY/WX    TMP DP  RH WIND       PRES   REMARKS
LA GUARDIA NY  MOSUNNY   77  55  46 NE9       30.20S
RALEIGH NC     CLOUDY    75  68  78 CALM      30.21R
ATLANTA GA     PTSUNNY   82  71  69 CALM      30.18S
NEW ORLEANS LA MOSUNNY   87  75  67 N5        30.15S HX  96
OKLAHOMA CITY  MOSUNNY   83  64  52 SW16      30.09S
ALBUQUERQUE NM MOSUNNY   77  53  43 CALM      30.20S
SALT LAKE CITY CLOUDY    72  60  66 SE8       30.09R
LOS ANGELES CA PTSUNNY   69  59  70 VRB3      29.99R
BOISE ID       SUNNY     75  47  36 SW7       29.95R
SEATTLE WA     SUNNY     68  53  58 NE5       29.98R
$$

*** WEATHER ACROSS MANITOBA...SASKATCHEWAN AND ONTARIO ***
                ***ONTARIO***

CITY           SKY/WX    TMP DP  RH WIND       PRES   REMARKS
GERALDTON      PTSUNNY   70  59  68 SW12      29.95F
THUNDER BAY    LGT RAIN  55  54  94 E8        29.97F
SIOUX LOOKOUT  CLOUDY    70  64  83 S8G18     29.80F
TORONTO        MOSUNNY   72  54  53 SE12      30.26R
BIG TROUT LK   MOSUNNY   66  57  72 S7        29.63F
PICKLE LAKE    PTSUNNY   72  61  68 S12G18    29.76F
DRYDEN         CLOUDY    70  64  83 S10G20    29.80F
KENORA         CLOUDY    70  66  88 SW9       29.81S
$$
                *** MANITOBA***

CITY           SKY/WX    TMP DP  RH WIND       PRES   REMARKS
BRANDON        PTSUNNY   68  55  64 W20       29.91R
DAUPHIN        SUNNY     66  55  68 W20G28    29.84S
ISLAND LAKE    MOSUNNY   72  55  56 W10G18    29.61S
PILOT MOUND      N/A     72  57  60 NW9         N/A
THE PAS        CLOUDY   N/A N/A N/A W30G39      N/A
THOMPSON       PTSUNNY   61  57  88 SW13      29.49R
WINNIPEG       PTSUNNY   75  59  57 NW7       29.84S
LYNN LAKE      CLOUDY    55  52  88 NW20G31   29.49R
CHURCHILL        N/A     63  57  82 SW7       29.41S
GILLAM         LGT RAIN N/A N/A N/A W9          N/A
$$
                ***SASKATCHEWAN***

CITY           SKY/WX    TMP DP  RH WIND       PRES   REMARKS
ESTEVAN        PTSUNNY   63  54  72 NW14      30.05R
KINDERSLEY     MOSUNNY   57  50  77 NW13      30.14R
LLOYDMINSTER   MOSUNNY   59  52  77 NW12      30.08R
PRINCE ALBERT  MOSUNNY   61  50  67 NW23G32   29.93R
REGINA         MOSUNNY   61  54  77 W17G24    30.05R



USA.gov is the U.S. government's official web portal to all federal, state and local government web resources and services.